Flag for Austria Weather past 2 weeks in Murau, Styria, Austria

Now
54 °F

Broken clouds.


Feels Like: 51 °F
Forecast: 32 / 57 °F
Wind: 8 mph from North

Location: Zeltweg

Current Time: Apr 28, 2015 at 6:50:39 PM

Latest Report: Apr 28, 2015 at 5:50 PM


Visibility: 25 mi

Pressure: 29.80 "Hg

Humidity: 51%

Dew point: 36 °F

Location of MurauLocation

Historic Weather in Murau — Graph

°F

Murau temperature yesterday

Maximum temperature yesterday: 66 °F (at 3:20 PM)
Minimum temperature yesterday: 43 °F (at 4:50 AM)
Average temperature yesterday: 59 °F

Past Weeks' High & Low Weather Summary

 TemperatureHumidityPressure
High73 °F (Apr 16, 1:50 PM)100% (Apr 15, 4:50 AM)30.36 "Hg (Apr 15, 4:50 AM)
Low27 °F (Apr 19, 6:50 AM)14% (Apr 16, 5:50 PM)29.56 "Hg (Apr 28, 5:50 AM)
Average54 °F55%30.03 "Hg
* Reported Apr 13 4:20 PM — Apr 28 4:50 PM, Murau, Weather by CustomWeather, © 2015

Note: Actual official high and low records may vary slightly from our data, if they occured in-between our weather recording intervals... More about our weather records

Advertising

Murau weather history for previous 24 hours

 ConditionsComfort  
Time TempWeatherWind HumidityBarometerVisibility
4:50 PM
Tue, Apr 28
54 °FBroken clouds.13 mph51%29.77 "Hg31 mi
4:20 PM55 °FBroken clouds.17 mph47%29.74 "Hg25 mi
3:50 PM57 °FBroken clouds.13 mph51%29.74 "Hg19 mi
3:20 PM57 °FBroken clouds.13 mph51%29.71 "Hg19 mi
2:50 PM57 °FBroken clouds.13 mph55%29.71 "Hg19 mi
2:20 PM59 °FPartly sunny.2 mph59%29.68 "Hg19 mi
1:50 PM57 °FBroken clouds.3 mph67%29.68 "Hg19 mi
1:20 PM57 °FBroken clouds.3 mph67%29.65 "Hg19 mi
12:50 PM57 °FCloudy.3 mph67%29.65 "Hg19 mi
12:20 PM57 °FMostly cloudy.1 mph63%29.65 "Hg19 mi
11:50 AM57 °FMore clouds than sun.3 mph67%29.65 "Hg19 mi
11:20 AM55 °FMore clouds than sun.1 mph67%29.65 "Hg19 mi
10:50 AM55 °FBroken clouds.2 mph67%29.62 "Hg19 mi
10:20 AM54 °FPartly sunny.3 mph72%29.62 "Hg19 mi
9:50 AM54 °FBroken clouds.1 mph72%29.62 "Hg19 mi
9:20 AM52 °FBroken clouds.2 mph77%29.62 "Hg19 mi
8:50 AM50 °FBroken clouds.2 mph76%29.62 "Hg19 mi
8:20 AM48 °FBroken clouds.2 mph82%29.62 "Hg19 mi
7:50 AM48 °FBroken clouds.2 mph87%29.59 "Hg19 mi
7:20 AM45 °FBroken clouds.2 mph100%29.59 "Hg25 mi
6:50 AM46 °FPartly sunny.2 mph82%29.59 "Hg19 mi
5:50 AM46 °FPassing clouds.6 mph82%29.56 "Hg19 mi
9:50 PM
Mon, Apr 27
54 °FPassing clouds.5 mph67%29.65 "Hg25 mi
8:50 PM55 °FScattered clouds.8 mph63%29.65 "Hg25 mi
7:50 PM57 °FScattered clouds.10 mph59%29.65 "Hg25 mi
6:50 PM59 °FPartly sunny.13 mph51%29.65 "Hg25 mi
Weather by CustomWeather, © 2015

See weather overviewHow to use our weather pages